CAPE
0 0 0 0 0 0 0 0 0 0 0 0 0 0 0 0 0 0 0 0 0 0 0 0 0 0 0 0 0 0 0 0 0 0 0 0 0 0 0 0 0 0 0
0 0 0 0 0 0 0 0 0 0 0 0 0 0 0 0 0 0 0 0 0 0 0 0 0 0 0 0 0 0 0 0 0 0 0 0 0 0 0 0 0 0 0
0 0 0 0 0 0 0 0 0 0 0 0 0 0 0 0 0 0 0 0 0 0 0 0 0 0 0 0 0 0 0 0 0 0 0 0 0 0 0 0 0 0 0
0 0 0 0 0 0 0 0 0 0 0 0 0 0 0 0 0 0 0 0 0 0 0 0 0 0 0 0 0 0 0 0 0 0 0 0 0 0 0 0 0 0 0
0 0 0 0 0 0 0 0 0 0 0 0 0 0 0 0 0 0 0 0 0 0 0 0 0 0 0 0 0 0 0 0 0 0 0 0 0 0 0 0 0 0 0
0 0 0 0 0 0 0 0 0 0 0 0 0 0 0 0 0 0 0 0 0 0 0 0 0 0 0 0 0 0 0 0 0 0 0 0 0 0 0 0 0 0 0
0 0 0 0 0 0 0 0 0 0 0 0 0 0 0 0 0 0 0 0 0 0 0 0 0 0 0 0 0 0 0 0 0 0 0 0 0 0 0 0 0 0 0
0 0 0 0 0 0 0 0 0 0 0 0 0 0 0 0 0 0 0 0 0 0 0 0 0 0 0 0 0 0 0 0 0 0 0 0 0 0 0 1 0 0 0
0 0 0 0 0 0 0 0 0 0 0 0 0 0 0 0 0 0 0 0 0 0 0 0 0 0 0 0 0 0 0 0 0 0 0 0 0 0 0 0 0 0 0
0 0 0 0 0 0 0 0 0 0 0 0 0 0 0 0 0 0 0 0 0 0 0 0 0 0 0 0 0 0 0 0 0 0 0 0 0 0 0 0 0 0 0
0 0 0 0 0 0 0 0 0 0 0 0 0 0 0 0 0 0 0 0 0 0 0 0 0 0 0 0 0 0 0 0 0 0 0 0 0 0 0 0 0 0 0
0 0 0 0 0 0 0 0 0 0 0 0 0 0 0 0 0 0 3 0 0 0 0 0 0 0 0 0 0 0 0 0 0 0 0 0 0 0 0 0 0 0 0
0 0 0 0 0 0 0 0 0 0 0 0 0 0 0 0 0 0 8 0 0 0 0 0 0 0 0 0 1 2 0 0 0 0 0 0 0 0 0 0 0 0 0
0 0 0 0 0 0 0 0 0 0 0 1 0 0 0 0 0 0 0 0 0 0 0 0 0 0 0 0 0 0 0 0 0 0 0 0 0 0 0 0 0 0 0
0 0 0 0 0 0 0 0 0 0 0 0 0 1 1 0 0 0 0 0 0 0 0 0 0 0 0 0 0 0 0 0 0 0 0 0 0 0 0 0 0 0 0
0 0 0 0 0 0 0 0 0 0 0 0 1 0 0 0 2 2 2 0 0 0 0 0 0 0 0 0 0 0 0 0 0 0 0 0 0 0 0 0 0 0 0
0 0 0 0 0 0 0 0 0 0 0 2 2 2 1 1 0 0 0 4 2 1 0 0 0 0 0 0 0 0 0 0 0 0 0 0 0 0 0 0 0 0 0
0 0 0 0 0 0 1 0 0 0 0 0 0 1 3 0 1 1 2 9 1 0 0 0 0 0 0 0 0 0 0 0 0 0 0 0 0 0 0 0 0 0 0
0 0 0 0 0 0 0 0 0 0 0 0 0 0 1 3 1 2 2 0 0 0 0 0 0 0 0 0 0 0 0 0 0 0 0 0 0 0 0 0 0 0 0
0 0 0 0 0 0 0 0 0 0 0 0 0 0 0 0 0 1 1 0 0 0 0 0 0 0 0 0 0 0 0 0 0 0 0 0 0 0 0 0 0 0 0
0 0 0 0 0 0 0 0 0 0 0 0 0 0 0 0 0 0 0 0 0 0 0 0 0 0 0 0 0 0 0 0 0 0 0 0 0 0 0 0 0 0 0
0 0 0 0 0 0 0 0 0 0 0 0 0 0 4 0 0 0 0 0 0 0 0 0 0 0 0 0 0 0 0 0 0 0 0 0 0 0 0 0 0 0 0
0 0 0 0 0 0 0 0 0 0 0 0 0 0 2 0 0 0 0 0 0 0 0 0 0 0 0 0 0 0 0 0 0 0 0 0 0 0 0 0 0 0 0
0 0 0 0 0 0 0 0 0 0 0 0 0 0 0 0 0 0 0 0 0 0 0 0 0 0 0 0 0 0 0 0 0 0 0 0 0 0 0 0 0 0 0
0 0 0 0 0 0 0 0 0 0 0 0 0 0 0 0 0 0 0 0 0 0 0 0 0 0 0 0 0 0 0 0 0 0 0 0 0 0 0 0 0 0 0
0 0 0 0 0 0 0 0 0 0 0 0 0 0 0 0 0 0 0 0 0 0 0 0 0 0 0 0 0 0 0 0 0 0 0 0 0 0 0 0 0 0 0
CIN
0 0 0 0 0 0 0 0 0 0 0 0 0 0 0 0 0 0 0 0 0 0 0 0 0 0 0 0 0 0 0 0 0 0 0 0 0 0 0 0 0 0 0
0 0 0 0 0 0 0 0 0 0 0 0 0 0 0 0 0 0 0 0 0 0 0 0 0 0 0 0 0 0 0 0 0 0 0 0 0 0 0 0 0 0 0
0 0 0 0 0 0 0 0 0 0 0 0 0 0 0 0 0 0 0 0 0 0 0 0 0 0 0 0 0 0 0 0 0 0 0 0 0 0 0 0 0 0 0
0 0 0 0 0 0 0 0 0 0 0 0 0 0 0 0 0 0 0 0 0 0 0 0 0 0 0 0 0 0 0 0 0 0 0 0 0 0 0 0 0 0 0
0 0 0 0 0 0 0 0 0 0 0 0 0 0 0 0 0 0 0 0 0 0 0 0 0 0 0 0 0 0 0 0 0 0 0 0 0 0 0 0 0 0 0
0 0 0 0 0 0 0 0 0 0 0 0 0 0 0 0 0 0 0 0 0 0 0 0 0 0 0 0 0 0 0 0 0 0 0 0 0 0 0 0 0 0 0
0 0 0 0 0 0 0 0 0 0 0 0 0 0 0 0 0 0 0 0 0 0 0 0 0 0 0 0 0 0 0 0 0 0 0 0 0 0 0 0 0 0 0
0 0 0 0 0 0 0 0 0 0 0 0 0 0 0 0 0 0 0 0 0 0 0 0 0 0 0 0 0 0 0 0 0 0 0 0 0 0 0 -1 0 0 0
0 0 0 0 0 0 0 0 0 0 0 0 0 0 0 0 0 0 0 0 0 0 0 0 0 0 0 0 0 0 0 0 0 0 0 -1 0 0 0 0 0 0 0
0 0 0 0 0 0 0 0 0 0 0 0 0 0 0 0 0 0 0 0 0 0 0 0 0 0 0 0 0 0 0 0 0 0 0 0 0 0 0 0 0 0 0
0 0 0 0 0 0 0 0 0 0 0 0 0 0 0 0 0 0 0 0 0 0 0 0 0 0 0 0 0 0 0 0 0 0 0 0 0 0 0 0 0 0 0
0 0 0 0 0 0 0 0 0 0 0 0 0 0 0 0 0 0 0 0 0 0 0 0 0 0 0 0 0 0 -1 0 0 0 0 0 0 0 0 0 0 0 0
0 0 0 0 0 0 0 0 0 0 0 0 0 0 0 0 0 0 0 0 0 0 0 0 0 0 0 0 -1 -1 0 0 0 0 0 0 0 0 0 0 0 0 0
0 0 0 0 0 0 0 0 0 0 0 0 0 0 0 0 0 0 -2 0 0 0 0 0 0 0 -1 0 0 0 0 0 0 0 0 0 0 0 0 0 0 0 0
0 0 0 0 0 0 0 0 0 0 0 0 0 0 0 0 0 0 0 0 0 0 0 0 0 0 0 0 0 0 0 0 0 0 0 0 0 0 0 0 0 0 0
0 0 0 0 0 0 0 0 0 0 0 -1 -1 0 0 0 0 0 0 0 0 0 0 0 0 0 0 0 0 0 0 0 0 0 0 0 0 0 0 0 0 0 0
0 0 0 0 0 0 0 0 0 0 0 -1 -1 -1 -1 0 -1 0 0 0 0 0 0 0 0 0 0 0 0 0 0 0 0 0 0 0 0 0 0 0 0 0 0
0 0 0 0 0 0 0 0 0 0 0 0 0 -1 -1 0 -1 -1 -1 0 0 0 0 0 0 0 0 0 0 0 0 0 0 0 0 0 0 0 0 0 0 0 0
0 0 0 0 -1 -1 0 -1 0 0 0 0 0 0 -1 -1 -1 -1 -1 -1 0 0 0 0 0 0 0 0 0 0 0 0 0 0 0 0 0 0 0 0 0 0 0
0 0 0 0 0 0 0 0 0 0 0 0 0 0 0 0 0 -2 -1 0 0 0 0 0 0 0 0 0 0 0 0 0 0 0 0 0 0 0 0 0 0 0 0
0 0 0 0 0 0 0 0 0 0 0 0 0 0 0 0 0 0 -2 0 0 0 0 0 0 0 0 0 0 0 0 0 0 0 0 0 0 0 0 0 0 0 0
0 0 0 0 0 0 0 0 0 0 0 0 0 0 -1 0 0 0 0 0 0 0 0 0 0 0 0 0 0 0 0 0 0 0 0 0 0 0 0 0 0 0 0
0 0 0 0 0 0 0 0 0 0 0 0 0 0 -2 0 0 0 0 0 0 0 0 0 0 0 0 0 0 0 0 0 0 0 0 0 0 0 0 0 0 0 0
0 0 0 0 0 0 0 0 0 0 0 0 0 0 0 0 0 0 0 0 0 0 0 0 0 0 0 0 0 0 0 0 0 0 0 0 0 0 0 0 0 0 0
0 0 0 0 0 0 0 0 0 0 0 0 0 0 0 0 0 0 0 0 0 0 0 0 0 0 0 0 0 0 0 0 0 0 0 0 0 0 0 0 0 0 0
0 0 0 0 0 0 0 0 0 0 0 0 0 0 0 0 0 0 0 0 0 0 0 0 0 0 0 0 0 0 0 0 0 0 0 0 0 0 0 0 0 0 0
Wind_Speed
32 32 32 32 30 28 27 28 29 29 29 29 28 27 27 26 25 24 23 22 21 21 20 20 20 18 19 18 19 19 20 20 25 26 27 28 31 32 36 36 37 38 39
40 39 39 38 37 35 36 34 32 32 31 31 30 29 28 28 28 28 26 25 24 23 22 21 21 20 20 19 20 21 21 21 26 30 29 30 31 33 35 36 36 36 37
43 47 45 45 43 41 38 38 36 35 34 33 34 33 32 30 30 30 29 28 27 26 24 23 23 22 22 22 21 22 23 24 24 29 32 30 32 33 36 36 36 38 39
48 48 51 47 43 42 41 40 38 37 37 37 37 36 35 33 32 32 32 31 30 29 27 26 25 25 25 23 24 24 23 24 26 29 31 33 32 32 34 40 42 40 43
49 50 51 48 46 44 42 40 39 37 36 37 38 38 38 37 35 35 34 33 32 31 30 29 27 26 25 24 23 23 21 24 25 27 30 31 33 36 39 40 45 46 45
51 51 50 49 47 50 48 44 41 40 38 38 39 38 37 39 37 36 36 35 35 33 32 30 28 26 25 23 22 21 20 23 24 25 29 32 33 35 38 41 44 46 48
52 51 52 51 51 51 50 46 44 42 39 42 42 40 39 40 37 36 37 37 36 35 34 32 29 27 25 23 21 20 20 20 20 23 29 31 33 35 38 42 43 44 43
54 54 53 53 53 52 50 48 47 45 43 43 43 42 39 39 37 37 37 36 36 34 33 32 29 27 27 25 24 23 23 22 22 26 29 30 31 32 34 38 43 47 48
55 57 57 56 56 53 51 48 46 46 47 45 44 42 40 40 38 38 35 35 34 33 32 30 29 27 24 22 23 24 24 26 23 24 26 28 29 32 34 39 42 48 53
56 58 57 55 55 54 50 47 43 42 47 44 44 42 41 40 35 34 34 31 32 33 29 28 27 26 24 22 23 24 26 25 25 25 26 27 27 29 32 34 37 45 47
59 60 59 56 54 52 50 45 43 40 39 40 41 39 37 37 35 33 32 30 31 33 30 29 28 26 24 24 24 25 25 23 24 23 25 28 30 31 31 31 32 37 41
62 61 60 58 54 51 49 48 42 38 36 36 38 38 37 34 31 31 30 30 30 32 31 28 27 26 25 26 25 23 22 22 22 25 28 29 31 32 32 32 34 34 34
64 64 62 60 57 53 52 49 44 38 38 35 34 35 35 33 33 31 31 32 30 30 28 27 26 25 25 25 23 22 21 23 25 26 27 29 30 31 32 34 35 37 35
68 67 66 63 60 57 50 47 45 43 39 36 37 36 36 34 34 32 29 29 29 26 24 24 23 24 24 23 22 20 22 23 25 25 27 28 30 32 35 35 38 39 41
69 68 68 64 63 62 57 53 51 48 43 43 40 38 33 33 31 33 30 32 28 25 24 23 25 25 25 24 25 24 24 23 25 25 27 29 31 33 35 35 37 39 44
70 68 65 64 63 62 60 58 51 50 46 45 42 38 37 32 28 31 29 29 29 26 24 27 27 27 27 28 27 25 25 25 25 25 26 28 30 33 34 35 37 41 45
67 67 63 61 61 61 59 56 58 49 48 46 43 41 40 35 32 29 28 30 27 23 28 26 26 25 24 24 24 25 24 24 24 26 27 27 29 32 35 38 40 42 45
59 59 59 57 56 56 55 54 52 52 51 46 43 42 42 38 34 33 30 29 29 28 31 28 26 25 24 23 22 23 22 22 24 24 25 26 29 32 36 38 41 44 46
53 51 50 51 51 52 52 50 47 47 46 44 41 41 38 36 34 31 32 33 33 33 29 29 27 25 24 23 21 21 22 22 20 22 24 26 29 32 35 39 42 43 46
45 46 45 46 47 47 46 45 42 43 43 44 43 41 34 32 32 34 33 34 31 31 29 25 26 25 22 21 19 17 17 19 20 23 25 27 30 31 36 40 42 46 47
39 40 39 39 39 40 41 38 37 37 37 37 38 35 33 31 31 28 30 30 28 27 25 24 21 20 18 15 14 15 16 18 20 22 25 27 29 33 36 38 43 45 46
37 36 32 30 33 33 31 29 30 31 30 30 29 28 26 26 27 25 23 24 22 21 19 17 15 14 13 12 13 14 17 19 20 22 24 27 30 33 37 41 44 44 48
33 33 33 33 34 21 20 21 23 23 23 20 19 17 18 17 17 17 17 15 14 13 11 10 9 9 10 11 13 14 17 18 20 21 25 27 31 35 39 42 45 47 49
14 20 22 24 14 13 16 17 17 15 12 13 12 11 11 11 11 10 10 10 9 9 9 9 8 8 10 10 12 15 17 20 21 22 24 29 33 37 40 42 44 46 50
9 24 22 20 17 15 13 11 11 10 8 8 8 8 7 7 6 6 7 8 8 8 8 8 8 8 10 11 12 17 20 22 22 23 26 30 35 38 40 42 46 47 50
12 25 23 19 17 16 14 12 10 8 7 7 6 5 4 4 5 6 4 4 5 5 6 8 9 11 12 14 17 20 21 22 23 25 27 32 35 37 41 44 47 47 50
Wind_Direction
294 288 283 282 280 280 277 272 269 266 259 257 256 255 253 253 253 254 258 259 261 266 272 275 281 286 291 295 298 300 301 303 304 311 314 320 322 326 326 327 327 326 326
293 289 287 284 283 283 280 277 271 265 261 258 257 257 256 254 254 253 255 257 256 259 264 269 275 281 285 289 292 295 297 299 303 305 314 318 320 324 325 327 327 327 326
300 290 288 285 286 284 282 278 274 267 263 259 256 255 255 254 252 251 253 255 255 259 261 264 270 274 279 282 286 290 294 299 302 306 310 317 320 324 325 327 329 329 329
302 298 289 289 290 289 285 279 274 268 267 263 259 257 255 254 252 251 253 255 255 258 261 262 266 269 273 278 283 287 291 295 301 305 309 314 319 325 327 326 328 332 330
304 301 301 297 293 290 286 281 275 270 267 266 265 260 257 256 253 251 251 251 252 256 259 261 264 268 270 275 279 282 287 293 298 304 310 315 319 322 324 328 326 327 329
304 305 306 306 301 290 286 282 277 274 271 268 264 262 258 257 252 249 249 250 252 252 254 258 262 265 266 268 272 277 281 287 294 302 309 311 316 320 322 325 326 330 328
305 307 308 307 304 298 290 284 278 274 272 269 266 263 259 258 253 250 250 252 250 251 252 254 258 260 261 265 266 273 278 283 292 302 306 309 314 317 321 322 324 325 327
304 303 306 307 303 302 297 289 282 277 273 270 267 264 261 257 252 250 249 253 250 249 249 250 251 253 254 256 262 269 277 283 291 298 302 306 311 318 320 321 322 321 322
306 302 302 302 301 301 299 297 289 280 275 271 269 265 260 260 253 250 248 254 251 250 250 248 251 250 246 246 260 266 275 284 291 298 301 306 312 318 321 322 321 322 321
304 301 299 301 301 300 301 299 295 287 278 275 271 268 264 263 255 247 244 252 251 252 250 249 243 246 242 241 256 263 272 281 289 298 302 309 315 320 322 323 322 320 321
301 299 298 300 300 300 297 295 294 291 286 280 274 271 267 263 258 246 238 250 252 252 250 249 249 247 244 246 257 265 274 283 289 296 301 306 311 316 321 324 326 322 320
298 298 299 299 298 296 293 290 289 291 287 283 277 274 271 267 259 245 238 249 249 250 248 248 249 244 247 251 258 265 273 282 288 295 301 306 311 315 319 322 324 321 320
298 296 296 295 292 291 288 286 285 286 285 282 278 274 271 269 265 253 243 247 252 255 251 249 247 242 246 251 255 263 273 280 288 294 299 305 312 317 320 322 322 322 322
294 293 291 290 288 287 286 283 282 281 280 277 275 275 273 269 262 255 246 239 248 255 249 250 248 245 249 258 259 266 275 280 287 293 300 307 313 316 319 321 322 324 325
292 290 288 288 285 282 279 279 278 278 275 274 274 273 274 273 264 252 241 242 241 245 249 248 248 246 253 254 261 272 278 282 288 294 300 307 312 316 318 321 323 325 324
291 290 287 284 282 280 278 276 277 276 275 272 273 269 271 272 267 256 244 240 238 239 249 246 245 249 252 254 260 267 272 280 289 295 300 307 311 315 318 322 324 324 324
289 287 286 283 279 278 277 274 273 278 273 271 271 268 266 266 262 254 245 241 240 238 249 247 248 247 251 256 260 265 271 280 289 294 300 307 313 316 318 322 324 324 325
291 287 284 282 280 278 277 274 272 273 272 272 268 267 265 263 261 256 247 238 242 244 254 250 251 253 255 256 259 267 272 278 286 293 301 308 312 316 319 321 324 325 325
292 288 286 283 280 279 277 275 271 272 271 270 269 265 263 261 261 258 246 246 245 248 249 253 252 255 256 256 261 267 274 282 290 296 303 308 311 315 317 321 324 325 325
295 290 287 284 282 279 277 274 272 271 271 268 264 263 262 258 260 258 251 249 249 250 253 251 251 253 253 257 261 268 276 284 291 297 303 308 311 315 318 321 324 324 325
301 296 292 288 284 282 278 274 273 272 271 270 265 264 258 255 259 258 250 251 251 251 252 251 246 248 251 255 262 271 280 288 293 299 305 308 312 316 320 322 323 324 325
301 298 300 297 291 287 284 280 277 275 274 271 269 265 255 256 258 255 252 253 252 252 252 245 242 243 245 255 267 278 285 291 296 301 305 311 315 318 319 321 323 324 326
289 284 276 258 272 300 296 291 284 279 275 272 270 265 258 256 256 251 250 248 246 243 240 234 230 241 256 270 280 287 291 295 301 306 309 314 317 317 319 321 323 324 326
256 266 269 283 344 337 313 301 290 285 281 276 274 271 266 259 254 248 241 235 229 236 240 242 248 257 272 283 289 292 295 300 307 310 312 315 316 317 319 322 324 325 326
254 0 353 348 350 347 340 335 320 311 304 289 283 285 281 263 245 234 227 229 241 245 250 258 271 281 290 297 300 298 300 303 307 312 314 315 315 317 320 322 324 325 326
316 352 349 335 323 321 327 343 345 339 325 311 303 301 283 251 234 226 234 245 244 253 265 280 290 297 302 305 305 304 304 307 311 314 317 315 317 319 321 322 324 325 326